www.pogodaiklimat.ru

Погода и климат >> Архив погоды >> Россия >> Томская область >> Ванжиль-Кынак


АРХИВ ПОГОДЫ в Ванжиль-Кынаке

Время (UTC), дата Ветер
(напр.,м/с)
 
Видим.   Явления Облачность Т
(С)
Тd
(С)
f
(%)
Тe
(С)
Тes
(С)
Комфортность P
(гПа)
Po
(гПа)
Тmin
(С)
Tmax
(С)
R
(мм)
R24
(мм)
S
(см)
00 13.09 СВ 1 10 км 9/9 600 м
[Sc]
+3.8 +2.8 93 +2 +2 1014.7 1002.4 -2.8
03 13.09 С 2 10 км 8/4 600 м
[Sc Ac und Cc]
+2.8 -5.2 56 0 +1 1014.6 1002.2
06 13.09 С 4
{10}
10 км 4/4 600 м
[Cu med, cong]
+8.2 -1.2 51 +5 +8 1013.6 1001.5
09 13.09 З 4
{11}
10 км 10/8 600 м
[Sc Ac trans]
+7.8 -0.7 55 +5 +5 1013.5 1001.4
12 13.09 З 2 10 км 10/8 600 м
[Sc Ac trans]
+7.2 +0.7 63 +5 +5 1013.6 1001.4 +8.2
15 13.09 З 2 50 км ясно +1.7 -0.8 83 -2 -2 1014.4 1002.0
18 13.09 штиль 0 50 км 5/0
[Ci fib]
-1.8 -2.7 94 -3 -3 1014.6 1002.0
21 13.09 Ю 1 50 км 10/10 600 м
[Sc]
-0.9 -1.5 96 -3 -3 1014.2 1001.6
00 14.09 Ю 1 4000 м слаб. ливневой дождь 10/10 300 м
[Cb cap]
+1.3 -1.9 79 -0 -0 1014.0 1001.5 -1.0 0.0
03 14.09 ЮВ 1 4000 м слаб. ливневой дождь 10/10 300 м
[Frnb]
+2.2 +1.7 96 0 0 1013.1 1000.7
06 14.09 ЮВ 1 4000 м слаб. ливневой дождь 10/10 300 м
[Frnb]
+3.2 +2.2 93 +2 +2 1010.7 998.3
09 14.09 ЮВ 1 4000 м слаб. морось 10/10 300 м
[St]
+3.6 +2.6 93 +2 +2 1011.4 999.1
12 14.09 Ю 1 10 км {ливн. осадки, морось} 10/10 600 м
[Sc]
+3.8 +2.8 93 +2 +2 1011.6 999.3 +4.2 3
15 14.09 штиль 0 50 км 10/10 600 м
[Sc]
+3.6 +2.9 95 +2 +2 1011.3 999.0
18 14.09 штиль 0 50 км 10/10 600 м
[Sc]
+3.3 +2.8 97 +2 +2 1011.6 999.2
21 14.09 С 1 50 км 10/10 600 м
[Sc]
+2.7 +1.9 94 +1 +1 1011.7 999.3
00 15.09 штиль 0 10 км 10/8 600 м
[Sc Ac trans]
+2.8 +1.8 93 +2 +2 1012.2 999.8 +2.4
03 15.09 СВ 1 10 км 10/8 600 м
[Sc Ac trans]
+4.5 +3.0 90 +3 +3 1012.8 1000.5
06 15.09 СВ 2 10 км 8/6 600 м
[Cb cap Ci fib]
+8.0 +1.4 63 +6 +8 1012.9 1000.8
09 15.09 В 1 10 км 6/6 600 м
[Cb calv]
+9.4 +2.3 61 1013.2
12 15.09 штиль 0 10 км ясно +7.8 +2.5 69 +7 +7 1014.1 1002.0 +9.6
15 15.09 Ю 1 10 км ясно +2.2 +1.1 92 0 0 1015.2 1002.8
18 15.09 Ю 1 10 км 8/6 600 м
[Sc Ac trans]
+0.5 +0.2 98 -2 -2 1015.1 1002.6
21 15.09 Ю 2 50 км 10/10 600 м
[Cb cap]
+3.3 +2.5 94 0 0 1014.7 1002.3
00 16.09 Ю 4 10 км слаб. ливневой дождь, в посл. час гроза 10/10 300 м
[Cb cap]
+6.3 +6.1 99 +2 +2 1012.9 1000.7 -0.3 11
03 16.09 Ю 3 4000 м слаб. морось 10/10 300 м
[St]
+8.2 +7.8 97 +5 +5 1012.7 1000.6
06 16.09 ЮВ 2 10 км {морось} 10/10 300 м
[St]
+11.2 +10.0 92 +10 +10 1011.8 999.9
09 16.09 Ю 2 10 км 4/0
[Ac trans Ci fib]
+17.0 +11.9 72 +17 +20 1010.6 998.9
12 16.09 Ю 1 10 км ясно +16.6 +13.4 81 +17 +18 1010.1 998.4 +17.0 0.0
15 16.09 Ю 2 50 км ясно +14.4 +12.6 89 +14 +14 1010.6 998.7
18 16.09 Ю 2 4000 м дымка ясно +10.9 +10.5 97 +9 +9 1010.5 998.6
21 16.09 штиль 0 4000 м дымка ясно +9.7 +9.1 96 +9 +9 1009.6 997.6
00 17.09 Ю 3 4000 м дымка 3/3 600 м
[Sc]
+10.2 +9.8 97 +8 +8 1008.7 996.7 +9.0
03 17.09 Ю 3 10 км 4/0
[Ci fib]
+14.6 +10.8 78 +14 +15 1007.7 995.9
06 17.09 Ю 4 10 км 3/0
[Ci sp]
+20.7 +9.7 49 +22 +26 комфорт 1006.4 994.8
09 17.09 Ю 4 10 км 4/3 600 м
[Cu med, cong Ci fib]
+22.4 +6.9 37 +23 +25 комфорт 1004.1 992.7
12 17.09 Ю 4
{10}
10 км 10/0
[Ac trans Ci fib]
+19.1 +9.5 54 +20 +20 1002.6 991.1 +22.6
15 17.09 Ю 2
{13}
4000 м гроза, ливневой дождь 10/10 300 м
[Cb cap]
+12.4 +11.3 93 +11 +11 1003.2 991.5
18 17.09 Ю 3 4000 м слаб. ливневой дождь {гроза} 10/10 300 м
[Cb cap]
+10.1 +9.1 94 +8 +8 1003.2 991.3
21 17.09 Ю 2 4000 м дымка {ливн. осадки} 4/3 300 м
[St Ac trans]
+9.1 +8.1 93 +7 +7 1004.4 992.5
00 18.09 ЮЗ 2 10 км {ливн. осадки} 10/10 300 м
[Cb cap]
+8.8 +8.4 97 +7 +7 1005.9 993.8 +8.1 6
03 18.09 З 1 10 км 9/9 600 м
[Sc]
+9.6 +8.6 93 +9 +9 1007.2 995.2
06 18.09 З 1 10 км 9/9 600 м
[Sc]
+13.0 +9.3 78 +13 +14 1007.0 995.2
09 18.09 З 1 10 км 8/6 600 м
[Sc Ac trans]
+13.4 +9.1 75 +14 +15 1008.5 996.7
12 18.09 штиль 0 10 км {ливн. осадки} 8/6 600 м
[Cb cap Ac trans Ci sp]
+12.4 +10.5 88 +12 +12 1009.6 997.7 +13.6 0.3
15 18.09 штиль 0 4000 м дымка {гроза, ливн. осадки} ясно +7.3 +6.9 97 +6 +6 1010.1 998.0
18 18.09 штиль 0 4000 м дымка {гроза, ливн. осадки} ясно +5.6 +5.6 100 +4 +4 1010.1 998.0
21 18.09 штиль 0 4000 м слаб. ливневой дождь 10/10 300 м
[Frnb]
+8.0 +7.6 97 +7 +7 1008.4 996.3
00 19.09 В 1 4000 м слаб. ливневой дождь 10/10 300 м
[Cb cap]
+9.4 +8.8 96 +9 +9 1006.5 994.5 +5.3 2
03 19.09 В 1 10 км в посл. час ливневой дождь 10/10 600 м
[Cb cap]
+10.5 +9.9 96 +10 +10 1003.3 991.4
06 19.09 Ю 3 4000 м слаб. ливневой дождь 10/10 300 м
[Cb cap]
+14.2 +10.8 80 +13 +13 999.5 987.8
09 19.09 ЮЗ 4
{10}
4000 м слаб. морось 10/10 300 м
[St]
+13.5 +13.0 97 +12 +12 999.6 987.9
12 19.09 З 6
{14}
10 км {ливн. осадки, морось} 10/10 300 м
[Cb cap]
+13.4 +11.1 86 +11 +11 1003.0 991.3 +14.2 3
15 19.09 ЮЗ 7
{14}
50 км 1/1 600 м
[Sc diur, vesp]
+12.1 +11.0 93 +9 +9 1004.7 992.9
18 19.09 Ю 1 4000 м слаб. ливневой дождь 10/10 300 м
[Cb cap]
+10.6 +10.2 97 +10 +10 1003.5 991.6
21 19.09 Ю 5 50 км {ливн. осадки} 9/9 600 м
[Sc]
+12.0 +11.4 96 +9 +9 998.4 986.6

 

Местоположение метеостанции Ванжиль-Кынак (Томская область, Россия): широта 60.35 долгота 84.08 высота над уровнем моря 99 м.

В архиве по умолчанию представлена погода в Ванжиль-Кынаке за последнюю неделю. Архивные данные за месяц целиком и за предыдущие месяцы, начиная с января 2011 года, Вы можете получить, выбрав интересующий диапазон дат из раскрывающегося списка и нажав кнопку "Ввод!".


*Определитесь, кто Вы:
робот инопланетянин человек

Внимание! Время в таблицах - всемирное. Для получения местного времени необходимо прибавить поправку, которая равна 7 ч.

Смотрите также архив погоды в соседних городах и на ближайших метеорологических станциях:

Погода в Напасе (Томская область, Россия) (131 км)
Погода в Березовке (Томская область, Россия) (140 км)
Погода в Корликах (Ханты-Мансийский АО, Россия) (159 км)
Погода в Ларьяке (Ханты-Мансийский АО, Россия) (224 км)
Погода в Каргасоке (Томская область, Россия) (230 км)
Погода в Колпашево (Томская область, Россия) (235 км)
Погода в Парабели (Томская область, Россия) (235 км)
Погода в Сыме (Красноярский край, Россия) (236 км)
Погода в Степановке (Томская область, Россия) (243 км)
Погода в Усть-Озерном (Томская область, Россия) (263 км)

Пояснения к столбцам:

Ветер - указаны скорость ветра в м/с - средняя за 10 мин, порывы в срок и между сроками (в фигурных скобках) и направление, откуда дует ветер: С - северный, СВ - северо-восточный, В - восточный, ЮВ - юго-восточный, Ю - южный, ЮЗ - юго-западный, З - западный, СЗ - северо-западный.
Видимость - горизонтальная дальность видимости в метрах или километрах. При видимости от 1 до 10 км при отсутствии осадков обычно наблюдается дымка, при ухудшении видимости до 1 км и менее - туман. В сухую погоду видимость может ухудшаться дымом, пылью или мглою.
Явления - указаны атмосферные явления, наблюдавшиеся в срок или в последний час перед сроком; фигурными скобками обозначены явления, наблюдавшиеся между сроками (за 1-3 часа до срока); квадратными скобками обозначены град или гололедные отложения с указанием их диаметра в мм.
Облачность - указаны через наклонную черту общая и нижняя облачность в баллах и высота нижней границы облаков в метрах; квадратными скобками обозначены формы облаков: Ci - перистые, Cs - перисто-слоистые, Cc - перисто-кучевые, Ac - высококучевые, As - высокослоистые, Sc - слоисто-кучевые, Ns - слоисто-дождевые, Cu - кучевые, Cb - кучево-дождевые. Подробнее классификацию облаков см. в Атласе облаков (PDF).
T - Температура воздуха - температура, измеренная на высоте 2 м над землей.
Td - Температура точки росы - температура, при понижении до которой содержащийся в воздухе водяной пар достигнет насыщения.
f - Относительная влажность воздуха - влажноcть воздуха, измеренная на высоте 2 м над землей.
Te - Эффективная температура - температура, которую ощущает одетый по сезону человек в тени. Характеристика душности погоды. При расчете учитывается влияние влажности воздуха и скорости ветра на теплоощущения человека.
Tes - Эффективная температура на солнце - температура, которую ощущает человек, с поправкой на солнечный нагрев. Характеристика знойности погоды. Зависит от высоты солнца над горизонтом, облачности и скорости ветра. Ночью, в пасмурную погоду, а также при ветре 12 м/с и более поправка равна нулю.
P - Атмосферное давление - приведенное к уровню моря атмосферное давление.
Po - Атмосферное давление - измеренное на уровне метеостанции атмосферное давление.
Tmin - Минимальная температура - минимум температуры воздуха на высоте 2 м над землей.
Tmax - Максимальная температура - максимум температуры воздуха на высоте 2 м над землей.
R - Количество осадков - Количество выпавших осадков за период времени, мм. При наведении курсора мыши на число - период времени, за который выпало указанное количество осадков.
R24 - Количество осадков - Количество выпавших осадков за 24 часа, мм.
S - Снежный покров - Высота снежного покрова, см. При наведении курсора мыши на число - состояние снежного покрова и степень покрытия местности в баллах.